Location: Rodanthe
(35.5920°N, 75.4670°W)
Time: 01:31:13
(UTC-04:00)

ISS - All Passes

Search period start: 24 April 2017 00:00
Search period end: 04 May 2017 00:00
Orbit: 400 x 409 km, 51.6° (Epoch: 24 April)

Date Brightness Start Highest point End Pass type
(mag) Time Alt. Az. Time Alt. Az. Time Alt. Az.
24 Apr - 08:53:15 10° SSW 08:56:13 34° SE 08:59:13 10° ENE daylight
24 Apr - 10:30:10 10° W 10:32:45 21° NNW 10:35:20 10° NNE daylight
24 Apr - 15:23:55 10° N 15:25:59 16° NNE 15:28:02 10° ENE daylight
24 Apr - 16:59:30 10° NW 17:02:43 61° SW 17:05:56 10° SE daylight
25 Apr - 08:01:59 10° S 08:04:08 16° SE 08:06:16 10° E daylight
25 Apr - 09:37:19 10° WSW 09:40:22 37° NW 09:43:25 10° NNE daylight
25 Apr - 14:32:50 10° NNE 14:33:26 10° NNE 14:34:02 10° NNE daylight
25 Apr - 16:07:15 10° NW 16:10:29 60° NE 16:13:41 10° ESE daylight
25 Apr - 17:46:15 10° WSW 17:46:32 10° SW 17:46:50 10° SW daylight
26 Apr - 08:44:48 10° SW 08:48:03 79° NW 08:51:18 10° NE daylight
26 Apr - 10:23:40 10° NW 10:24:58 12° NNW 10:26:17 10° N daylight
26 Apr - 15:15:12 10° NNW 15:18:08 30° NE 15:21:03 10° E daylight
26 Apr - 16:51:56 10° WNW 16:54:28 21° SW 16:57:00 10° S daylight
27 Apr - 07:52:42 10° SSW 07:55:49 45° SE 07:58:56 10° ENE daylight
27 Apr - 09:30:05 10° WNW 09:32:26 18° NNW 09:34:47 10° NNE daylight
27 Apr - 14:23:20 10° NNW 14:25:41 18° NNE 14:28:01 10° ENE daylight
27 Apr - 15:59:11 10° WNW 16:02:18 45° SW 16:05:25 10° SSE daylight
28 Apr - 07:01:07 10° S 07:03:39 21° SE 07:06:11 10° ENE daylight
28 Apr - 08:37:03 10° W 08:39:59 30° NW 08:42:55 10° NNE daylight
28 Apr - 13:31:49 10° N 13:33:08 12° NNE 13:34:26 10° NE daylight
28 Apr - 15:06:49 10° NW 15:10:04 80° NE 15:13:18 10° SE daylight
29 Apr - 06:11:11 10° SE 06:11:32 10° SE 06:11:54 10° ESE daylight
29 Apr - 07:44:23 10° WSW 07:47:36 60° NW 07:50:50 10° NE daylight
29 Apr - 09:24:02 10° NNW 09:24:38 10° NNW 09:25:14 10° NNW daylight
29 Apr - 14:14:38 10° NNW 14:17:42 37° NE 14:20:46 10° ESE daylight
29 Apr - 15:51:48 10° W 15:53:56 16° SW 15:56:04 10° S daylight
30 Apr - 06:52:05 10° SW 06:55:18 61° SE 06:58:31 10° NE daylight
30 Apr - 08:29:58 10° WNW 08:32:02 16° NNW 08:34:06 10° N daylight
30 Apr - 13:22:40 10° NNW 13:25:15 21° NNE 13:27:50 10° E daylight
30 Apr - 14:58:48 10° WNW 15:01:46 34° SW 15:04:44 10° SSE daylight
01 May - 06:00:15 10° SSW 06:03:04 27° SE 06:05:53 10° ENE daylight
01 May - 07:36:44 10° W 07:39:30 25° NNW 07:42:17 10° NNE daylight
01 May - 12:30:56 10° N 12:32:42 14° NNE 12:34:27 10° ENE daylight
01 May - 14:06:16 10° NW 14:09:31 78° SW 14:12:45 10° SE daylight
02 May - 05:09:15 10° SSE 05:10:54 13° SE 05:12:34 10° E visible
02 May - 06:43:54 10° WSW 06:47:03 46° NW 06:50:13 10° NE daylight
02 May - 13:14:00 10° NW 13:17:09 48° NE 13:20:18 10° ESE daylight
02 May - 14:51:46 10° W 14:53:17 13° SW 14:54:49 10° SSW daylight
03 May - 05:51:26 10° SW 05:54:41 81° SE 05:57:56 10° NE daylight
03 May - 07:29:47 10° WNW 07:31:31 13° NNW 07:33:14 10° N daylight
03 May - 12:21:54 10° NNW 12:24:42 25° NE 12:27:28 10° E daylight
03 May - 13:58:20 10° WNW 14:01:07 26° SW 14:03:52 10° S daylight
